| time (UTC) | temp F | wind direction | speed knots | gust knots | rain 1hr in | rain 24hr in | rain mn in | humidity % | barometer mb |
| 20260506015003 | 52 | 330 | 0.9 | 6.1 | 0.00 | 0.00 | 0.00 | 76 | 1011.1 |
| 20260506014504 | 52 | 336 | 0.9 | 6.1 | 0.00 | 0.00 | 0.00 | 76 | 1011.1 |
| 20260506014004 | 52 | 338 | 0.9 | 2.6 | 0.00 | 0.00 | 0.00 | 76 | 1011.0 |
| 20260506013504 | 52 | 346 | 0.9 | 7.8 | 0.00 | 0.00 | 0.00 | 76 | 1010.8 |
| 20260506013003 | 52 | 349 | 0.9 | 7.8 | 0.00 | 0.00 | 0.00 | 76 | 1010.6 |
| 20260506012525 | 52 | 344 | 0.9 | 7.0 | 0.00 | 0.00 | 0.00 | 76 | 1010.6 |
| 20260506012004 | 52 | 350 | 0.9 | 6.1 | 0.00 | 0.00 | 0.00 | 75 | 1010.5 |
| 20260506011504 | 52 | 335 | 0.9 | 7.8 | 0.00 | 0.00 | 0.00 | 75 | 1010.4 |
| 20260506011004 | 52 | 325 | 0.9 | 7.8 | 0.00 | 0.00 | 0.00 | 75 | 1010.4 |
| 20260506010503 | 52 | 344 | 0.9 | 7.0 | 0.00 | 0.00 | 0.00 | 75 | 1010.4 |
| 20260506010025 | 53 | 355 | 0.9 | 7.0 | 0.00 | 0.00 | 0.00 | 74 | 1010.2 |
| 20260506005503 | 53 | 358 | 0.9 | 4.3 | 0.00 | 0.00 | 0.00 | 74 | 1010.3 |
| 20260506005004 | 53 | 8 | 0.9 | 4.3 | 0.00 | 0.00 | 0.00 | 75 | 1010.0 |
| 20260506004504 | 53 | 352 | 0.9 | 4.3 | 0.00 | 0.00 | 0.00 | 74 | 1010.1 |
| 20260506004024 | 53 | 344 | 0.9 | 4.3 | 0.00 | 0.00 | 0.00 | 75 | 1010.1 |
| 20260506003503 | 53 | 10 | 0.9 | 4.3 | 0.00 | 0.00 | 0.00 | 74 | 1010.0 |
| 20260506003003 | 53 | 31 | 0.9 | 6.1 | 0.00 | 0.00 | 0.00 | 75 | 1010.2 |
| 20260506002504 | 53 | 4 | 1.7 | 7.0 | 0.00 | 0.00 | 0.00 | 74 | 1010.3 |
| 20260506002004 | 53 | 2 | 1.7 | 8.7 | 0.00 | 0.00 | 0.00 | 74 | 1010.0 |
| 20260506001504 | 54 | 19 | 0.9 | 8.7 | 0.00 | 0.00 | 0.00 | 74 | 1009.7 |
| 20260506001024 | 54 | 3 | 0.9 | 3.5 | 0.00 | 0.00 | 0.00 | 74 | 1009.5 |
| 20260506000504 | 54 | 351 | 0.9 | 4.3 | 0.00 | 0.00 | 0.00 | 74 | 1009.9 |
| 20260506000004 | 54 | 359 | 0.9 | 7.0 | 0.00 | 0.00 | 0.00 | 73 | 1009.9 |
| 20260505235525 | 54 | 25 | 0.9 | 7.0 | 0.00 | 0.00 | 0.00 | 73 | 1009.8 |
| 20260505235003 | 54 | 48 | 0.9 | 2.6 | 0.00 | 0.00 | 0.00 | 73 | 1009.8 |
| 20260505234524 | 54 | 66 | 0.9 | 2.6 | 0.00 | 0.00 | 0.00 | 72 | 1009.9 |
| 20260505234003 | 54 | 89 | 0.9 | 3.5 | 0.00 | 0.00 | 0.00 | 72 | 1009.8 |
| 20260505233503 | 54 | 87 | 0.9 | 3.5 | 0.00 | 0.00 | 0.00 | 72 | 1009.4 |
| 20260505233003 | 54 | 38 | 0.9 | 7.8 | 0.00 | 0.00 | 0.00 | 72 | 1009.7 |
| 20260505232524 | 54 | 29 | 0.9 | 7.8 | 0.00 | 0.00 | 0.00 | 72 | 1009.7 |
| 20260505232004 | 54 | 36 | 0.9 | 5.2 | 0.00 | 0.00 | 0.00 | 71 | 1009.8 |
| 20260505231503 | 54 | 358 | 0.9 | 5.2 | 0.00 | 0.00 | 0.00 | 71 | 1009.7 |
| 20260505231003 | 54 | 4 | 0.9 | 5.2 | 0.00 | 0.00 | 0.00 | 71 | 1009.7 |
| 20260505230504 | 54 | 54 | 0.9 | 4.3 | 0.00 | 0.00 | 0.00 | 71 | 1009.4 |
| 20260505230004 | 55 | 37 | 0.9 | 7.8 | 0.00 | 0.00 | 0.00 | 71 | 1008.9 |
| 20260505225504 | 55 | 14 | 1.7 | 7.8 | 0.00 | 0.00 | 0.00 | 71 | 1009.2 |
| 20260505225003 | 55 | 337 | 1.7 | 7.0 | 0.00 | 0.00 | 0.00 | 70 | 1009.0 |
| 20260505224503 | 55 | 338 | 1.7 | 7.0 | 0.00 | 0.00 | 0.00 | 70 | 1008.7 |
| 20260505224004 | 55 | 354 | 0.9 | 4.3 | 0.00 | 0.00 | 0.00 | 70 | 1008.6 |
| 20260505223503 | 55 | 2 | 1.7 | 4.3 | 0.00 | 0.00 | 0.00 | 70 | 1008.5 |
| 20260505223024 | 56 | 358 | 1.7 | 8.7 | 0.00 | 0.00 | 0.00 | 70 | 1008.6 |
| 20260505222503 | 56 | 16 | 1.7 | 8.7 | 0.00 | 0.00 | 0.00 | 70 | 1008.6 |
| 20260505222003 | 56 | 23 | 1.7 | 6.1 | 0.00 | 0.00 | 0.00 | 70 | 1008.4 |
| 20260505221503 | 56 | 358 | 1.7 | 8.7 | 0.00 | 0.00 | 0.00 | 70 | 1008.2 |
| 20260505221003 | 56 | 350 | 0.9 | 8.7 | 0.00 | 0.00 | 0.00 | 71 | 1007.9 |
| 20260505220503 | 56 | 8 | 0.9 | 3.5 | 0.00 | 0.00 | 0.00 | 72 | 1007.7 |
| 20260505220004 | 56 | 12 | 0.9 | 5.2 | 0.00 | 0.00 | 0.00 | 72 | 1008.0 |
| 20260505215503 | 56 | 17 | 0.9 | 6.1 | 0.00 | 0.00 | 0.00 | 71 | 1008.3 |
| 20260505215003 | 56 | 25 | 0.9 | 6.1 | 0.00 | 0.00 | 0.00 | 71 | 1008.5 |
| 20260505214524 | 56 | 349 | 0.9 | 4.3 | 0.00 | 0.00 | 0.00 | 72 | 1008.3 |
| 20260505214003 | 56 | 355 | 0.9 | 9.6 | 0.00 | 0.00 | 0.00 | 72 | 1008.1 |
| 20260505213525 | 56 | 15 | 0.9 | 9.6 | 0.00 | 0.00 | 0.00 | 72 | 1008.1 |
| 20260505213003 | 56 | 12 | 0.9 | 10.4 | 0.00 | 0.00 | 0.00 | 72 | 1008.2 |
| 20260505212503 | 56 | 354 | 1.7 | 10.4 | 0.00 | 0.00 | 0.00 | 72 | 1008.3 |
| 20260505212003 | 56 | 25 | 0.9 | 6.1 | 0.00 | 0.00 | 0.00 | 73 | 1008.2 |
| 20260505211503 | 56 | 73 | 0.9 | 7.0 | 0.00 | 0.00 | 0.00 | 73 | 1008.2 |
| 20260505211003 | 56 | 32 | 0.9 | 7.0 | 0.00 | 0.00 | 0.00 | 73 | 1008.0 |
| 20260505210503 | 56 | 21 | 0.9 | 7.0 | 0.00 | 0.00 | 0.00 | 73 | 1007.8 |
| 20260505210024 | 56 | 16 | 0.9 | 7.0 | 0.00 | 0.00 | 0.00 | 73 | 1007.8 |
| 20260505205503 | 56 | 14 | 0.9 | 7.0 | 0.00 | 0.00 | 0.00 | 74 | 1007.6 |
| 20260505205003 | 56 | 7 | 0.9 | 4.3 | 0.00 | 0.00 | 0.00 | 74 | 1007.7 |
| 20260505204503 | 56 | 356 | 0.9 | 8.7 | 0.00 | 0.00 | 0.00 | 75 | 1007.8 |
| 20260505204004 | 56 | 18 | 0.9 | 8.7 | 0.00 | 0.00 | 0.00 | 74 | 1008.1 |
| 20260505203503 | 56 | 52 | 0.9 | 11.3 | 0.00 | 0.00 | 0.00 | 75 | 1008.1 |
| 20260505203003 | 56 | 356 | 2.6 | 12.2 | 0.00 | 0.00 | 0.00 | 74 | 1008.2 |
| 20260505202503 | 56 | 346 | 2.6 | 12.2 | 0.00 | 0.00 | 0.00 | 74 | 1008.1 |
| 20260505202024 | 56 | 355 | 2.6 | 10.4 | 0.00 | 0.00 | 0.00 | 74 | 1007.8 |
| 20260505201524 | 56 | 351 | 1.7 | 10.4 | 0.00 | 0.00 | 0.00 | 75 | 1007.8 |
| 20260505201024 | 56 | 352 | 1.7 | 9.6 | 0.00 | 0.00 | 0.00 | 75 | 1007.7 |
| 20260505200503 | 56 | 15 | 1.7 | 8.7 | 0.00 | 0.00 | 0.00 | 76 | 1007.8 |
| 20260505200004 | 56 | 15 | 1.7 | 7.0 | 0.00 | 0.00 | 0.00 | 76 | 1007.6 |
| 20260505195503 | 56 | 358 | 1.7 | 7.8 | 0.00 | 0.00 | 0.00 | 75 | 1007.6 |
| 20260505195003 | 56 | 357 | 1.7 | 7.8 | 0.00 | 0.00 | 0.00 | 76 | 1007.6 |
| 20260505194524 | 56 | 5 | 1.7 | 7.0 | 0.00 | 0.00 | 0.00 | 76 | 1007.6 |
| 20260505194003 | 56 | 350 | 0.9 | 7.0 | 0.00 | 0.00 | 0.00 | 76 | 1007.7 |
| 20260505193503 | 57 | 352 | 0.9 | 6.1 | 0.00 | 0.00 | 0.00 | 76 | 1007.8 |
| 20260505193003 | 57 | 44 | 0.9 | 6.1 | 0.00 | 0.00 | 0.00 | 76 | 1007.7 |
| 20260505192503 | 57 | 50 | 0.9 | 9.6 | 0.00 | 0.00 | 0.00 | 76 | 1007.7 |
| 20260505192004 | 57 | 20 | 1.7 | 9.6 | 0.00 | 0.00 | 0.00 | 77 | 1007.4 |
| 20260505191524 | 57 | 6 | 1.7 | 7.8 | 0.00 | 0.00 | 0.00 | 77 | 1007.1 |
| 20260505191003 | 57 | 360 | 1.7 | 11.3 | 0.00 | 0.00 | 0.00 | 77 | 1007.1 |
| 20260505190524 | 57 | 348 | 1.7 | 11.3 | 0.00 | 0.00 | 0.00 | 78 | 1007.0 |
| 20260505190004 | 57 | 341 | 0.9 | 7.8 | 0.00 | 0.00 | 0.00 | 78 | 1007.0 |
| 20260505185503 | 57 | 358 | 0.9 | 8.7 | 0.00 | 0.00 | 0.00 | 79 | 1006.9 |
| 20260505185003 | 57 | 349 | 1.7 | 8.7 | 0.00 | 0.00 | 0.00 | 78 | 1006.9 |
| 20260505184524 | 57 | 4 | 1.7 | 7.0 | 0.00 | 0.00 | 0.00 | 78 | 1006.8 |
| 20260505184003 | 57 | 354 | 1.7 | 7.8 | 0.00 | 0.00 | 0.00 | 79 | 1007.0 |
| 20260505183503 | 57 | 8 | 1.7 | 7.8 | 0.00 | 0.00 | 0.00 | 79 | 1006.9 |
| 20260505183003 | 57 | 52 | 0.9 | 5.2 | 0.00 | 0.00 | 0.00 | 79 | 1006.9 |
| 20260505182503 | 57 | 355 | 0.9 | 5.2 | 0.00 | 0.00 | 0.00 | 79 | 1006.7 |
| 20260505182004 | 57 | 10 | 0.9 | 5.2 | 0.00 | 0.00 | 0.00 | 80 | 1006.8 |
| 20260505181503 | 57 | 26 | 0.9 | 3.5 | 0.00 | 0.00 | 0.00 | 80 | 1006.8 |
| 20260505181003 | 57 | 12 | 1.7 | 4.3 | 0.00 | 0.00 | 0.00 | 80 | 1006.9 |
| 20260505180503 | 57 | 3 | 1.7 | 7.0 | 0.00 | 0.00 | 0.00 | 80 | 1006.9 |
| 20260505180025 | 57 | 3 | 1.7 | 7.0 | 0.00 | 0.00 | 0.00 | 81 | 1006.9 |
| 20260505175503 | 57 | 7 | 0.9 | 7.0 | 0.00 | 0.00 | 0.00 | 81 | 1006.5 |
| 20260505175024 | 57 | 360 | 0.9 | 5.2 | 0.00 | 0.00 | 0.00 | 81 | 1006.4 |
| 20260505174504 | 57 | 336 | 0.9 | 5.2 | 0.00 | 0.00 | 0.00 | 81 | 1006.2 |
| 20260505174024 | 57 | 316 | 0.9 | 5.2 | 0.00 | 0.00 | 0.00 | 81 | 1006.0 |
| 20260505173503 | 58 | 349 | 0.9 | 7.0 | 0.00 | 0.00 | 0.00 | 82 | 1006.2 |
| 20260505173024 | 57 | 3 | 1.7 | 7.8 | 0.00 | 0.00 | 0.00 | 81 | 1006.2 |
| 20260505172504 | 58 | 337 | 1.7 | 7.8 | 0.00 | 0.00 | 0.00 | 81 | 1006.1 |
| 20260505172003 | 58 | 329 | 0.9 | 4.3 | 0.00 | 0.00 | 0.00 | 82 | 1006.1 |
| 20260505171504 | 58 | 335 | 0.0 | 3.5 | 0.00 | 0.00 | 0.00 | 82 | 1006.2 |
| 20260505171003 | 58 | 340 | 0.9 | 7.0 | 0.00 | 0.00 | 0.00 | 82 | 1006.3 |
| 20260505170503 | 58 | 349 | 1.7 | 8.7 | 0.00 | 0.00 | 0.00 | 81 | 1006.3 |
| 20260505170003 | 58 | 341 | 1.7 | 8.7 | 0.00 | 0.00 | 0.00 | 81 | 1005.9 |
| 20260505165503 | 58 | 329 | 1.7 | 7.0 | 0.00 | 0.00 | 0.00 | 81 | 1005.7 |
| 20260505165003 | 58 | 334 | 1.7 | 7.8 | 0.00 | 0.00 | 0.00 | 81 | 1005.6 |
| 20260505164503 | 59 | 3 | 1.7 | 10.4 | 0.00 | 0.00 | 0.00 | 81 | 1005.6 |
| 20260505164024 | 59 | 5 | 1.7 | 10.4 | 0.00 | 0.00 | 0.00 | 81 | 1005.6 |
| 20260505163503 | 59 | 346 | 1.7 | 8.7 | 0.00 | 0.00 | 0.00 | 81 | 1005.1 |
| 20260505163003 | 59 | 9 | 1.7 | 8.7 | 0.00 | 0.00 | 0.00 | 81 | 1005.1 |
| 20260505162503 | 60 | 74 | 0.9 | 5.2 | 0.00 | 0.00 | 0.00 | 80 | 1005.1 |
| 20260505162003 | 60 | 11 | 1.7 | 9.6 | 0.00 | 0.00 | 0.00 | 80 | 1005.0 |
| 20260505161503 | 60 | 357 | 2.6 | 13.9 | 0.00 | 0.00 | 0.00 | 80 | 1005.1 |
| 20260505161003 | 60 | 357 | 1.7 | 13.9 | 0.00 | 0.00 | 0.00 | 79 | 1004.8 |
| 20260505160503 | 61 | 18 | 1.7 | 9.6 | 0.00 | 0.00 | 0.00 | 79 | 1004.8 |
| 20260505153003 | 64 | 341 | 0.9 | 7.0 | 0.00 | 0.00 | 0.00 | 77 | 1004.3 |
| 20260505152503 | 65 | 358 | 0.9 | 7.0 | 0.00 | 0.00 | 0.00 | 76 | 1004.3 |
| 20260505152003 | 66 | 6 | 0.9 | 6.1 | 0.00 | 0.00 | 0.00 | 76 | 1004.1 |
| 20260505151503 | 67 | 340 | 0.9 | 6.1 | 0.00 | 0.00 | 0.00 | 77 | 1004.0 |
| 20260505151003 | 67 | 34 | 0.9 | 3.5 | 0.00 | 0.00 | 0.00 | 78 | 1003.9 |
| 20260505150524 | 68 | 51 | 0.9 | 3.5 | 0.00 | 0.00 | 0.00 | 79 | 1003.9 |
| 20260505140503 | 69 | 76 | 0.0 | 0.9 | 0.00 | 0.00 | 0.00 | 82 | 1002.9 |
| 20260505125024 | 67 | 90 | 0.9 | 4.3 | 0.00 | 0.00 | 0.00 | 82 | 1002.8 |
| 20260505124503 | 67 | 93 | 0.9 | 4.3 | 0.00 | 0.00 | 0.00 | 82 | 1002.8 |
| 20260505124003 | 67 | 89 | 0.0 | 2.6 | 0.00 | 0.00 | 0.00 | 82 | 1002.9 |
| 20260505123503 | 67 | 94 | 0.9 | 2.6 | 0.00 | 0.00 | 0.00 | 82 | 1002.7 |
| 20260505123024 | 67 | 96 | 0.9 | 2.6 | 0.00 | 0.00 | 0.00 | 82 | 1002.6 |
| 20260505122503 | 67 | 102 | 0.9 | 2.6 | 0.00 | 0.00 | 0.00 | 82 | 1002.5 |
| 20260505122003 | 67 | 100 | 0.9 | 2.6 | 0.00 | 0.00 | 0.00 | 82 | 1002.4 |
| 20260505121503 | 67 | 93 | 0.9 | 2.6 | 0.00 | 0.00 | 0.00 | 82 | 1002.2 |
| 20260505121024 | 67 | 91 | 0.9 | 2.6 | 0.00 | 0.00 | 0.00 | 82 | 1002.2 |
| 20260505120503 | 67 | 106 | 0.9 | 3.5 | 0.00 | 0.00 | 0.00 | 82 | 1002.4 |
| 20260505120004 | 67 | 137 | 0.9 | 3.5 | 0.00 | 0.00 | 0.00 | 82 | 1002.3 |
| 20260505115503 | 67 | 140 | 0.0 | 1.7 | 0.00 | 0.00 | 0.00 | 82 | 1002.4 |
| 20260505115024 | 67 | 141 | 0.0 | 2.6 | 0.00 | 0.00 | 0.00 | 82 | 1002.4 |
| 20260505114524 | 67 | 143 | 0.0 | 2.6 | 0.00 | 0.00 | 0.00 | 82 | 1002.4 |
| 20260505114003 | 67 | 179 | 0.0 | 3.5 | 0.00 | 0.00 | 0.00 | 82 | 1002.2 |
| 20260505113503 | 67 | 122 | 0.9 | 3.5 | 0.00 | 0.00 | 0.00 | 82 | 1002.1 |
| 20260505113024 | 67 | 96 | 0.0 | 2.6 | 0.00 | 0.00 | 0.00 | 82 | 1001.9 |
| 20260505112503 | 67 | 116 | 0.9 | 2.6 | 0.00 | 0.00 | 0.00 | 82 | 1002.1 |
| 20260505112003 | 67 | 116 | 0.9 | 2.6 | 0.00 | 0.00 | 0.00 | 82 | 1002.0 |
| 20260505111503 | 67 | 104 | 0.0 | 2.6 | 0.00 | 0.00 | 0.00 | 82 | 1002.0 |
| 20260505111003 | 67 | 115 | 0.9 | 3.5 | 0.00 | 0.00 | 0.00 | 82 | 1001.9 |
| 20260505110524 | 67 | 146 | 0.9 | 3.5 | 0.00 | 0.00 | 0.00 | 82 | 1001.9 |
| 20260505102003 | 67 | 104 | 0.0 | 2.6 | 0.00 | 0.00 | 0.00 | 81 | 1001.4 |
| 20260505101503 | 67 | 126 | 0.9 | 2.6 | 0.00 | 0.00 | 0.00 | 80 | 1001.4 |
| 20260505101003 | 67 | 122 | 0.9 | 2.6 | 0.00 | 0.00 | 0.00 | 80 | 1001.3 |
| 20260505100503 | 67 | 102 | 0.9 | 3.5 | 0.00 | 0.00 | 0.00 | 80 | 1001.2 |
| 20260505100003 | 68 | 109 | 0.9 | 3.5 | 0.00 | 0.00 | 0.00 | 79 | 1001.0 |
| 20260505095524 | 68 | 113 | 0.9 | 3.5 | 0.00 | 0.00 | 0.00 | 79 | 1001.0 |
| 20260505095003 | 68 | 112 | 0.9 | 3.5 | 0.00 | 0.00 | 0.00 | 79 | 1001.1 |
| 20260505094503 | 68 | 113 | 0.9 | 4.3 | 0.00 | 0.00 | 0.00 | 79 | 1001.0 |
| 20260505094003 | 68 | 113 | 0.9 | 4.3 | 0.00 | 0.00 | 0.00 | 78 | 1000.9 |
| 20260505093524 | 68 | 104 | 0.9 | 3.5 | 0.00 | 0.00 | 0.00 | 78 | 1000.9 |
| 20260505093003 | 68 | 95 | 0.9 | 2.6 | 0.00 | 0.00 | 0.00 | 78 | 1000.9 |
| 20260505092503 | 69 | 95 | 0.9 | 2.6 | 0.00 | 0.00 | 0.00 | 77 | 1000.8 |
| 20260505092024 | 69 | 100 | 0.9 | 3.5 | 0.00 | 0.00 | 0.00 | 77 | 1000.9 |
| 20260505091503 | 69 | 113 | 1.7 | 3.5 | 0.00 | 0.00 | 0.00 | 77 | 1000.9 |
| 20260505091003 | 69 | 117 | 1.7 | 3.5 | 0.00 | 0.00 | 0.00 | 77 | 1001.1 |
| 20260505090503 | 69 | 105 | 0.9 | 3.5 | 0.00 | 0.00 | 0.00 | 77 | 1001.1 |
| 20260505090024 | 69 | 94 | 0.9 | 3.5 | 0.00 | 0.00 | 0.00 | 76 | 1001.2 |
| 20260505085503 | 69 | 99 | 0.9 | 3.5 | 0.00 | 0.00 | 0.00 | 76 | 1001.1 |
| 20260505085024 | 69 | 97 | 0.0 | 2.6 | 0.00 | 0.00 | 0.00 | 76 | 1001.1 |
| 20260505084503 | 69 | 74 | 0.0 | 3.5 | 0.00 | 0.00 | 0.00 | 76 | 1001.2 |
| 20260505084003 | 69 | 98 | 0.0 | 3.5 | 0.00 | 0.00 | 0.00 | 76 | 1001.1 |
| 20260505083503 | 69 | 126 | 0.9 | 2.6 | 0.00 | 0.00 | 0.00 | 76 | 1001.2 |
| 20260505083004 | 69 | 110 | 0.9 | 5.2 | 0.00 | 0.00 | 0.00 | 76 | 1001.1 |
| 20260505082503 | 69 | 100 | 0.9 | 5.2 | 0.00 | 0.00 | 0.00 | 76 | 1001.3 |
| 20260505082003 | 69 | 87 | 0.0 | 1.7 | 0.00 | 0.00 | 0.00 | 76 | 1001.3 |
| 20260505081503 | 69 | 79 | 0.0 | 1.7 | 0.00 | 0.00 | 0.00 | 75 | 1001.4 |
| 20260505081003 | 69 | 86 | 0.9 | 4.3 | 0.00 | 0.00 | 0.00 | 75 | 1001.3 |
| 20260505080503 | 70 | 94 | 0.9 | 4.3 | 0.00 | 0.00 | 0.00 | 75 | 1001.3 |
| 20260505080004 | 70 | 109 | 0.9 | 2.6 | 0.00 | 0.00 | 0.00 | 75 | 1001.4 |
| 20260505075525 | 70 | 111 | 0.9 | 2.6 | 0.00 | 0.00 | 0.00 | 75 | 1001.4 |
| 20260505075004 | 70 | 109 | 0.9 | 2.6 | 0.00 | 0.00 | 0.00 | 75 | 1001.5 |
| 20260505074525 | 70 | 107 | 0.0 | 1.7 | 0.00 | 0.00 | 0.00 | 75 | 1001.5 |
| 20260505074004 | 70 | 106 | 0.0 | 2.6 | 0.00 | 0.00 | 0.00 | 75 | 1001.7 |
| 20260505073504 | 70 | 114 | 0.9 | 3.5 | 0.00 | 0.00 | 0.00 | 75 | 1001.8 |
| 20260505073004 | 70 | 125 | 0.0 | 3.5 | 0.00 | 0.00 | 0.00 | 74 | 1001.9 |
| 20260505072504 | 70 | 128 | 0.0 | 2.6 | 0.00 | 0.00 | 0.00 | 74 | 1002.0 |
| 20260505072004 | 70 | 128 | 0.0 | 0.9 | 0.00 | 0.00 | 0.00 | 74 | 1002.0 |
| 20260505071504 | 70 | 128 | 0.0 | 0.9 | 0.00 | 0.00 | 0.00 | 74 | 1002.1 |
| 20260505071004 | 70 | 134 | 0.0 | 0.9 | 0.00 | 0.00 | 0.00 | 75 | 1002.1 |
| 20260505070504 | 70 | 152 | 0.0 | 1.7 | 0.00 | 0.00 | 0.00 | 74 | 1002.2 |
| 20260505070025 | 70 | 176 | 0.0 | 1.7 | 0.00 | 0.00 | 0.00 | 74 | 1002.3 |
| 20260505065504 | 70 | 213 | 0.0 | 0.9 | 0.00 | 0.00 | 0.00 | 75 | 1002.4 |
| 20260505065004 | 70 | 0 | 0.0 | 0.0 | 0.00 | 0.00 | 0.00 | 74 | 1002.5 |
| 20260505064525 | 70 | 0 | 0.0 | 0.0 | 0.00 | 0.00 | 0.00 | 74 | 1002.3 |
| 20260505064025 | 70 | 0 | 0.0 | 0.0 | 0.00 | 0.00 | 0.00 | 74 | 1002.5 |
| 20260505063504 | 70 | 0 | 0.0 | 0.0 | 0.00 | 0.00 | 0.00 | 73 | 1002.6 |
| 20260505063004 | 70 | 0 | 0.0 | 0.0 | 0.00 | 0.00 | 0.00 | 73 | 1002.8 |
| 20260505062504 | 70 | 0 | 0.0 | 0.0 | 0.00 | 0.00 | 0.00 | 73 | 1002.8 |
| 20260505062025 | 70 | 0 | 0.0 | 0.0 | 0.00 | 0.00 | 0.00 | 73 | 1002.8 |
| 20260505061504 | 71 | 0 | 0.0 | 0.0 | 0.00 | 0.00 | 0.00 | 73 | 1002.6 |
| 20260505061004 | 71 | 0 | 0.0 | 0.0 | 0.00 | 0.00 | 0.00 | 73 | 1002.5 |
| 20260505060504 | 71 | 0 | 0.0 | 0.0 | 0.00 | 0.00 | 0.00 | 73 | 1002.2 |
| 20260505060005 | 71 | 214 | 0.0 | 0.9 | 0.00 | 0.00 | 0.00 | 73 | 1002.0 |
| 20260505055504 | 71 | 214 | 0.0 | 0.9 | 0.00 | 0.00 | 0.00 | 73 | 1001.9 |
| 20260505055004 | 71 | 147 | 0.0 | 2.6 | 0.00 | 0.00 | 0.00 | 72 | 1001.8 |
| 20260505054504 | 71 | 126 | 0.0 | 2.6 | 0.00 | 0.00 | 0.00 | 72 | 1001.7 |
| 20260505054004 | 71 | 334 | 0.0 | 2.6 | 0.00 | 0.00 | 0.00 | 72 | 1001.7 |
| 20260505053504 | 71 | 273 | 0.0 | 2.6 | 0.00 | 0.00 | 0.00 | 72 | 1001.6 |
| 20260505053004 | 71 | 212 | 0.9 | 2.6 | 0.00 | 0.00 | 0.00 | 71 | 1001.8 |
| 20260505052525 | 71 | 162 | 0.9 | 2.6 | 0.00 | 0.00 | 0.00 | 71 | 1001.8 |
| 20260505052025 | 71 | 163 | 0.9 | 2.6 | 0.00 | 0.00 | 0.00 | 71 | 1001.8 |
| 20260505051504 | 71 | 211 | 0.9 | 3.5 | 0.00 | 0.00 | 0.00 | 71 | 1002.0 |
| 20260505051004 | 71 | 201 | 0.0 | 3.5 | 0.00 | 0.00 | 0.00 | 71 | 1001.8 |
| 20260505050504 | 71 | 137 | 0.9 | 1.7 | 0.00 | 0.00 | 0.00 | 70 | 1001.8 |
| 20260505041504 | 72 | 129 | 1.7 | 3.5 | 0.00 | 0.00 | 0.00 | 68 | 1001.3 |
| 20260505041004 | 72 | 116 | 1.7 | 3.5 | 0.00 | 0.00 | 0.00 | 67 | 1001.5 |
| 20260505040504 | 72 | 72 | 1.7 | 2.6 | 0.00 | 0.00 | 0.00 | 67 | 1001.7 |
| 20260505040005 | 72 | 351 | 0.9 | 2.6 | 0.00 | 0.00 | 0.00 | 67 | 1001.7 |
| 20260505035504 | 72 | 227 | 0.9 | 3.5 | 0.00 | 0.00 | 0.00 | 66 | 1001.9 |
| 20260505035025 | 72 | 141 | 0.9 | 5.2 | 0.00 | 0.00 | 0.00 | 66 | 1002.0 |
| 20260505034525 | 72 | 108 | 0.9 | 5.2 | 0.00 | 0.00 | 0.00 | 66 | 1002.1 |
| 20260505034004 | 72 | 104 | 0.9 | 5.2 | 0.00 | 0.00 | 0.00 | 66 | 1002.0 |
| 20260505033504 | 72 | 82 | 0.9 | 5.2 | 0.00 | 0.00 | 0.00 | 66 | 1002.4 |
| 20260505033004 | 72 | 78 | 0.9 | 4.3 | 0.00 | 0.00 | 0.00 | 65 | 1002.3 |
| 20260505032504 | 72 | 115 | 0.9 | 3.5 | 0.00 | 0.00 | 0.00 | 65 | 1002.3 |
| 20260505032004 | 72 | 143 | 0.9 | 3.5 | 0.00 | 0.00 | 0.00 | 65 | 1002.4 |
| 20260505031504 | 72 | 173 | 0.9 | 2.6 | 0.00 | 0.00 | 0.00 | 64 | 1002.5 |
| 20260505031025 | 72 | 224 | 0.0 | 2.6 | 0.00 | 0.00 | 0.00 | 64 | 1002.5 |
| 20260505030504 | 73 | 212 | 0.9 | 2.6 | 0.00 | 0.00 | 0.00 | 64 | 1002.6 |
| 20260505030025 | 73 | 78 | 0.9 | 3.5 | 0.00 | 0.00 | 0.00 | 64 | 1002.6 |
| 20260505025504 | 73 | 94 | 0.9 | 3.5 | 0.00 | 0.00 | 0.00 | 64 | 1002.6 |
| 20260505025004 | 73 | 108 | 0.9 | 3.5 | 0.00 | 0.00 | 0.00 | 64 | 1002.6 |
| 20260505024504 | 73 | 53 | 0.0 | 3.5 | 0.00 | 0.00 | 0.00 | 64 | 1002.6 |
| 20260505024004 | 73 | 248 | 0.9 | 4.3 | 0.00 | 0.00 | 0.00 | 64 | 1002.8 |
| 20260505023504 | 73 | 181 | 0.9 | 4.3 | 0.00 | 0.00 | 0.00 | 64 | 1002.8 |
| 20260505023004 | 73 | 121 | 0.9 | 4.3 | 0.00 | 0.00 | 0.00 | 63 | 1002.9 |
| 20260505022525 | 73 | 157 | 0.9 | 3.5 | 0.00 | 0.00 | 0.00 | 63 | 1002.9 |
| 20260505022004 | 74 | 203 | 0.9 | 3.5 | 0.00 | 0.00 | 0.00 | 63 | 1002.6 |
| 20260505021504 | 74 | 225 | 0.9 | 3.5 | 0.00 | 0.00 | 0.00 | 63 | 1002.6 |
| 20260505021025 | 74 | 204 | 0.9 | 2.6 | 0.00 | 0.00 | 0.00 | 63 | 1002.6 |
| 20260505020504 | 74 | 131 | 0.9 | 3.5 | 0.00 | 0.00 | 0.00 | 63 | 1002.6 |
| 20260505020004 | 74 | 96 | 0.9 | 3.5 | 0.00 | 0.00 | 0.00 | 63 | 1002.7 |
| 20260505015504 | 74 | 92 | 0.9 | 2.6 | 0.00 | 0.00 | 0.00 | 63 | 1002.7 |